Météo par heure à Alisovo

Ce jour, 15 Mai, Samedi

Heure Température Précipitation Vent Pression Humidité
00:00 +21°C° 0 mm 1 m/s 742 mmHg 41%
01:00 +20°C° 0 mm 1 m/s 742 mmHg 41%
02:00 +20°C° 0 mm 1 m/s 742 mmHg 42%
03:00 +19°C° 0 mm 1 m/s 742 mmHg 42%
04:00 +19°C° 0 mm 1 m/s 742 mmHg 42%
05:00 +20°C° 0 mm 1 m/s 742 mmHg 42%
06:00 +21°C° 0 mm 1 m/s 742 mmHg 42%
07:00 +21°C° 0 mm 2 m/s 742 mmHg 42%
08:00 +24°C° 0 mm 2 m/s 742 mmHg 38%
09:00 +26°C° 0 mm 2 m/s 743 mmHg 34%
10:00 +28°C° 0 mm 3 m/s 743 mmHg 30%
11:00 +29°C° 0 mm 3 m/s 742 mmHg 28%
12:00 +29°C° 0 mm 3 m/s 742 mmHg 25%
13:00 +30°C° 0 mm 3 m/s 742 mmHg 23%
14:00 +30°C° 0 mm 3 m/s 742 mmHg 23%
15:00 +30°C° 0 mm 2 m/s 742 mmHg 23%
16:00 +31°C° 0 mm 2 m/s 742 mmHg 22%
17:00 +29°C° 0 mm 2 m/s 741 mmHg 26%
18:00 +28°C° 0 mm 1 m/s 741 mmHg 30%
19:00 +27°C° 0 mm 1 m/s 741 mmHg 34%
20:00 +26°C° 0 mm 1 m/s 741 mmHg 34%
21:00 +24°C° 0 mm 1 m/s 741 mmHg 35%
22:00 +23°C° 0 mm 1 m/s 741 mmHg 36%
23:00 +21°C° 0 mm 2 m/s 741 mmHg 37%

Demain, 16 Mai, Dimanche

Heure Température Précipitation Vent Pression Humidité
00:00 +20°C° 0 mm 2 m/s 740 mmHg 38%
01:00 +20°C° 0 mm 2 m/s 740 mmHg 39%
02:00 +19°C° 0 mm 2 m/s 740 mmHg 40%
03:00 +19°C° 0 mm 2 m/s 740 mmHg 41%
04:00 +18°C° 0 mm 2 m/s 740 mmHg 42%
05:00 +19°C° 0 mm 2 m/s 741 mmHg 43%
06:00 +20°C° 0 mm 2 m/s 741 mmHg 44%
07:00 +21°C° 0 mm 2 m/s 741 mmHg 44%
08:00 +24°C° 0 mm 3 m/s 741 mmHg 40%
09:00 +26°C° 0 mm 3 m/s 741 mmHg 36%
10:00 +28°C° 0 mm 4 m/s 741 mmHg 33%
11:00 +29°C° 0 mm 4 m/s 741 mmHg 30%
12:00 +30°C° 0 mm 4 m/s 741 mmHg 27%
13:00 +31°C° 0 mm 3 m/s 741 mmHg 24%
14:00 +31°C° 0 mm 3 m/s 741 mmHg 24%
15:00 +31°C° 0 mm 2 m/s 740 mmHg 24%
16:00 +31°C° 0 mm 2 m/s 740 mmHg 23%
17:00 +29°C° 0 mm 2 m/s 740 mmHg 31%
18:00 +27°C° 0 mm 2 m/s 740 mmHg 38%
19:00 +25°C° 0 mm 2 m/s 739 mmHg 46%
20:00 +24°C° 0.1 mm 2 m/s 740 mmHg 47%
21:00 +23°C° 0.1 mm 2 m/s 740 mmHg 48%
22:00 +22°C° 0.1 mm 1 m/s 740 mmHg 49%
23:00 +21°C° 0 mm 1 m/s 740 mmHg 49%

Après-demain, 17 Mai, Lundi

Heure Température Précipitation Vent Pression Humidité
00:00 +21°C° 0 mm 1 m/s 740 mmHg 50%
01:00 +21°C° 0 mm 1 m/s 740 mmHg 50%
02:00 +20°C° 0 mm 1 m/s 740 mmHg 52%
03:00 +19°C° 0 mm 2 m/s 739 mmHg 54%
04:00 +18°C° 0 mm 2 m/s 739 mmHg 56%
05:00 +19°C° 0.2 mm 2 m/s 740 mmHg 55%
06:00 +20°C° 0.2 mm 2 m/s 740 mmHg 54%
07:00 +21°C° 0.2 mm 2 m/s 740 mmHg 53%
08:00 +24°C° 0.1 mm 2 m/s 740 mmHg 48%
09:00 +26°C° 0.1 mm 2 m/s 740 mmHg 42%
10:00 +28°C° 0.1 mm 2 m/s 740 mmHg 37%
11:00 +29°C° 0 mm 2 m/s 740 mmHg 34%
12:00 +30°C° 0 mm 3 m/s 740 mmHg 31%
13:00 +31°C° 0 mm 3 m/s 740 mmHg 28%
14:00 +31°C° 0 mm 3 m/s 740 mmHg 26%
15:00 +31°C° 0 mm 3 m/s 740 mmHg 25%
16:00 +31°C° 0 mm 3 m/s 740 mmHg 24%
17:00 +30°C° 0 mm 2 m/s 739 mmHg 28%
18:00 +29°C° 0 mm 2 m/s 739 mmHg 33%
19:00 +28°C° 0 mm 1 m/s 739 mmHg 38%
20:00 +27°C° 0 mm 1 m/s 739 mmHg 39%
21:00 +25°C° 0 mm 1 m/s 739 mmHg 40%
22:00 +24°C° 0 mm 1 m/s 739 mmHg 41%
23:00 +23°C° 0 mm 1 m/s 739 mmHg 44%

18 Mai, Mardi

Heure Température Précipitation Vent Pression Humidité
00:00 +22°C° 0 mm 1 m/s 739 mmHg 47%
01:00 +21°C° 0 mm 2 m/s 739 mmHg 50%
02:00 +21°C° 0 mm 1 m/s 739 mmHg 51%
03:00 +21°C° 0 mm 1 m/s 738 mmHg 51%
04:00 +20°C° 0 mm 1 m/s 738 mmHg 52%
05:00 +21°C° 0 mm 1 m/s 738 mmHg 50%
06:00 +22°C° 0 mm 1 m/s 738 mmHg 48%
07:00 +23°C° 0 mm 1 m/s 739 mmHg 46%
08:00 +25°C° 0 mm 1 m/s 739 mmHg 42%
09:00 +27°C° 0 mm 1 m/s 738 mmHg 38%
10:00 +29°C° 0 mm 1 m/s 738 mmHg 33%
11:00 +29°C° 0 mm 1 m/s 738 mmHg 31%
12:00 +30°C° 0 mm 1 m/s 738 mmHg 28%
13:00 +31°C° 0 mm 1 m/s 738 mmHg 26%
14:00 +31°C° 0 mm 1 m/s 738 mmHg 27%
15:00 +30°C° 0 mm 1 m/s 738 mmHg 29%
16:00 +30°C° 0 mm 1 m/s 737 mmHg 31%
17:00 +28°C° 0.1 mm 2 m/s 737 mmHg 37%
18:00 +26°C° 0.1 mm 2 m/s 737 mmHg 43%
19:00 +25°C° 0.1 mm 3 m/s 737 mmHg 49%
20:00 +24°C° 0 mm 3 m/s 737 mmHg 49%
21:00 +22°C° 0 mm 3 m/s 737 mmHg 49%
22:00 +21°C° 0 mm 3 m/s 737 mmHg 49%
23:00 +21°C° 0 mm 3 m/s 737 mmHg 52%

19 Mai, Mercredi

Heure Température Précipitation Vent Pression Humidité
00:00 +20°C° 0 mm 3 m/s 737 mmHg 56%
01:00 +20°C° 0 mm 2 m/s 737 mmHg 59%
02:00 +19°C° 0 mm 2 m/s 736 mmHg 60%
03:00 +19°C° 0 mm 2 m/s 736 mmHg 61%
04:00 +20°C° 0 mm 1 m/s 736 mmHg 62%
05:00 +20°C° 0 mm 2 m/s 736 mmHg 59%
06:00 +21°C° 0 mm 2 m/s 737 mmHg 57%
07:00 +22°C° 0 mm 3 m/s 737 mmHg 54%
08:00 +23°C° 0 mm 4 m/s 737 mmHg 50%
09:00 +26°C° 0 mm 5 m/s 737 mmHg 46%
10:00 +27°C° 0 mm 5 m/s 737 mmHg 42%
11:00 +28°C° 0 mm 5 m/s 737 mmHg 40%
12:00 +29°C° 0 mm 5 m/s 737 mmHg 38%
13:00 +30°C° 0 mm 5 m/s 737 mmHg 36%
14:00 +29°C° 0 mm 5 m/s 737 mmHg 37%
15:00 +29°C° 0 mm 5 m/s 736 mmHg 37%
16:00 +29°C° 0 mm 5 m/s 736 mmHg 38%
17:00 +26°C° 0.8 mm 5 m/s 736 mmHg 47%
18:00 +23°C° 0.8 mm 5 m/s 736 mmHg 56%
19:00 +20°C° 0.8 mm 5 m/s 736 mmHg 65%
20:00 +19°C° 0 mm 5 m/s 736 mmHg 69%
21:00 +18°C° 0 mm 4 m/s 737 mmHg 74%
22:00 +18°C° 0 mm 4 m/s 737 mmHg 79%
23:00 +17°C° 0 mm 3 m/s 737 mmHg 82%

20 Mai, Jeudi

Heure Température Précipitation Vent Pression Humidité
00:00 +17°C° 0 mm 3 m/s 737 mmHg 85%
01:00 +16°C° 0 mm 2 m/s 737 mmHg 88%
02:00 +16°C° 0 mm 3 m/s 737 mmHg 87%
03:00 +16°C° 0 mm 3 m/s 737 mmHg 86%
04:00 +15°C° 0 mm 4 m/s 737 mmHg 85%
05:00 +17°C° 0 mm 4 m/s 738 mmHg 80%
06:00 +17°C° 0 mm 5 m/s 738 mmHg 74%
07:00 +19°C° 0 mm 6 m/s 738 mmHg 69%
08:00 +21°C° 0 mm 6 m/s 738 mmHg 63%
09:00 +22°C° 0 mm 6 m/s 739 mmHg 57%
10:00 +24°C° 0 mm 7 m/s 739 mmHg 51%
11:00 +26°C° 0 mm 7 m/s 739 mmHg 48%
12:00 +27°C° 0 mm 7 m/s 739 mmHg 45%
13:00 +28°C° 0 mm 7 m/s 739 mmHg 42%
14:00 +29°C° 0 mm 6 m/s 739 mmHg 41%
15:00 +29°C° 0 mm 6 m/s 738 mmHg 40%
16:00 +30°C° 0 mm 6 m/s 738 mmHg 39%
17:00 +28°C° 0 mm 5 m/s 738 mmHg 44%
18:00 +27°C° 0 mm 4 m/s 738 mmHg 48%
19:00 +26°C° 0 mm 3 m/s 738 mmHg 53%
20:00 +25°C° 0 mm 3 m/s 738 mmHg 56%
21:00 +24°C° 0 mm 3 m/s 738 mmHg 59%
22:00 +21°C° 0 mm 3 m/s 738 mmHg 62%
23:00 +21°C° 0 mm 3 m/s 738 mmHg 62%
Voir plus

Nous avons besoin de votre consentement

Meteoprog et ses fournisseurs de services peuvent stocker et accéder à des données personnelles telles que des cookies, des identifiants d'appareils ou d'autres technologies similaires sur votre appareil et traiter ces données pour personnaliser le contenu et les publicités, ainsi que pour fournir des fonctionnalités de médias sociaux et analyser le trafic.

  • Stocker et/ou accéder à des informations sur votre appareil

    Des cookies, des identifiants d'appareils ou d'autres informations peuvent être stockés ou accessibles sur votre appareil aux fins indiquées ci-dessus.

  • Annonces et contenus personnalisés, mesure des annonces et des contenus, connaissance de l'audience et développement de produits

    Les annonces et le contenu peuvent être personnalisés en fonction d'un profil. D'autres données peuvent être ajoutées pour mieux personnaliser les annonces et le contenu. Les performances des publicités et du contenu peuvent être mesurées. Il est possible d'obtenir des informations sur le public qui a vu les publicités et le contenu. Ces données peuvent être utilisées pour développer ou améliorer l'expérience de l'utilisateur, les systèmes et les logiciels.

En cliquant sur "J'accepte", vous autorisez l'utilisation de cookies, des identifiants d'appareils, des balises web ou d'autres technologies similaires. Vos paramètres peuvent être modifiés dans le navigateur de votre appareil.

Dans certains cas, des intérêts légitimes peuvent être invoqués plutôt qu'un consentement. Vous pouvez en savoir plus à ce sujet dans notre Politique de confidentialité et de cookies.